Weather History for Grosse Ile, MI

Change the Weather History Date:

Sunday, November 10, 2013

  Actual Average (KDTW) Record (KDTW)
Temperature  
Mean Temperature 42 °F 44 °F  
Max Temperature 48 °F 52 °F 68 °F (1999)
Min Temperature 37 °F 36 °F 19 °F (1913)
Degree Days  
Heating Degree Days 22 21  
Month to date heating degree days 195  
Since 1 July heating degree days 706  
Cooling Degree Days 0 0  
Month to date cooling degree days 0  
Year to date cooling degree days 803  
Moisture  
Dew Point 29 °F    
Average Humidity 55    
Maximum Humidity 76    
Minimum Humidity 43    
Precipitation  
Precipitation 0.00 in 0.09 in 1.57 in (2002)
Month to date precipitation 0.90  
Year to date precipitation 29.12  
Snow  
Snow 0.00 in 0.00 in 3.40 in (1892)
Month to date snowfall 0.2  
Since 1 July snowfall 0.3  
Since 1 September snowfall 0.3  
Snow Depth -    
Sea Level Pressure  
Sea Level Pressure 30.11 in    
Wind  
Wind Speed 11 mph (West)    
Max Wind Speed 23 mph    
Max Gust Speed 37 mph    
Visibility 10 miles    
Events Rain    
T = Trace of Precipitation, MM = Missing Value Source: NWS Daily Summary

Daily Weather History Graph

Daily Weather History Graph

Search for Another Location

Airport:

Trip Planner

Search our weather history database for the weather conditions in past years. The results will help you decide how hot, cold, wet, or windy it might be!

Date:

Astronomy

Nov. 10, 2013 Rise Set
Actual Time 7:16 AM EST 5:15 PM EST
Civil Twilight 6:47 AM EST 5:45 PM EST
Nautical Twilight 6:13 AM EST 6:19 PM EST
Astronomical Twilight 5:40 AM EST 6:51 PM EST
Moon 1:27 PM EST (11/10) No Moon Set
Length of Visible Light 10h 58m
Length of Day
9h 58m
First Quarter, 55% of the Moon is Illuminated
Nov 10
First Quarter
Nov 17
Full
Nov 25
Last Quarter
Dec 2
New
Dec 9
First Quarter

Hourly Weather History & Observations

Time (EST) Temp. Windchill Dew Point Humidity Pressure Visibility Wind Dir Wind Speed Gust Speed Precip Events Conditions
12:14 AM 48.2 °F - 37.4 °F 66% 29.89 in 10.0 mi WSW 6.9 mph - N/A   Clear
12:34 AM 48.2 °F - 37.4 °F 66% 29.89 in 10.0 mi WSW 8.1 mph - N/A   Mostly Cloudy
12:54 AM 48.2 °F - 37.4 °F 66% 29.90 in 10.0 mi West 6.9 mph - N/A   Overcast
1:14 AM 46.4 °F 42.4 °F 39.2 °F 76% 29.90 in 10.0 mi WNW 8.1 mph - N/A Rain Light Rain
1:34 AM 48.2 °F - 37.4 °F 66% 29.90 in 10.0 mi West 8.1 mph 16.1 mph N/A   Overcast
1:54 AM 46.4 °F 42.4 °F 37.4 °F 71% 29.90 in 10.0 mi West 8.1 mph 16.1 mph N/A   Scattered Clouds
2:14 AM 46.4 °F 42.4 °F 37.4 °F 71% 29.91 in 10.0 mi WNW 8.1 mph - N/A   Scattered Clouds
2:34 AM 46.4 °F 44.3 °F 37.4 °F 71% 29.91 in 10.0 mi SW 4.6 mph - N/A   Overcast
2:54 AM 46.4 °F 41.9 °F 37.4 °F 71% 29.91 in 10.0 mi WSW 9.2 mph - N/A   Mostly Cloudy
3:14 AM 46.4 °F 39.2 °F 33.8 °F 62% 29.91 in 10.0 mi WNW 18.4 mph 24.2 mph N/A   Overcast
3:34 AM 46.4 °F 40.1 °F 28.4 °F 50% 29.92 in 10.0 mi West 15.0 mph 26.5 mph N/A   Overcast
3:54 AM 46.4 °F 38.7 °F 26.6 °F 46% 29.94 in 10.0 mi West 20.7 mph 25.3 mph N/A   Overcast
4:15 AM 44.6 °F 37.4 °F 26.6 °F 49% 29.94 in 10.0 mi West 16.1 mph 31.1 mph N/A   Overcast
4:34 AM 44.6 °F 35.9 °F 24.8 °F 46% 29.94 in 10.0 mi WNW 23.0 mph 36.8 mph N/A   Overcast
4:54 AM 44.6 °F 37.8 °F 26.6 °F 49% 29.96 in 10.0 mi West 15.0 mph 21.9 mph N/A   Overcast
5:14 AM 44.6 °F 39.2 °F 28.4 °F 53% 29.97 in 10.0 mi WNW 10.4 mph 19.6 mph N/A   Overcast
5:34 AM 44.6 °F 38.8 °F 28.4 °F 53% 29.98 in 10.0 mi West 11.5 mph 19.6 mph N/A   Overcast
5:54 AM 44.6 °F 38.1 °F 26.6 °F 49% 29.99 in 10.0 mi WNW 13.8 mph 27.6 mph N/A   Overcast
6:14 AM 44.6 °F 37.4 °F 26.6 °F 49% 30.00 in 10.0 mi WNW 16.1 mph 21.9 mph N/A   Overcast
6:34 AM 44.6 °F 38.4 °F 26.6 °F 49% 30.00 in 10.0 mi West 12.7 mph 18.4 mph N/A   Overcast
6:54 AM 44.6 °F 37.4 °F 24.8 °F 46% 30.01 in 10.0 mi West 16.1 mph 23.0 mph N/A   Overcast
7:14 AM 44.6 °F 37.8 °F 24.8 °F 46% 30.03 in 10.0 mi West 15.0 mph 20.7 mph N/A   Overcast
7:34 AM 44.6 °F 36.9 °F 26.6 °F 49% 30.04 in 10.0 mi West 18.4 mph 21.9 mph N/A   Overcast
7:54 AM 44.6 °F 36.9 °F 26.6 °F 49% 30.04 in 10.0 mi WNW 18.4 mph 25.3 mph N/A   Overcast
8:14 AM 44.6 °F 37.8 °F 26.6 °F 49% 30.06 in 10.0 mi West 15.0 mph 23.0 mph N/A   Overcast
8:34 AM 42.8 °F 35.1 °F 26.6 °F 53% 30.07 in 10.0 mi WNW 16.1 mph 20.7 mph N/A   Overcast
8:54 AM 44.6 °F 38.8 °F 28.4 °F 53% 30.08 in 10.0 mi WNW 11.5 mph 21.9 mph N/A   Overcast
9:14 AM 44.6 °F 37.4 °F 26.6 °F 49% 30.09 in 10.0 mi West 16.1 mph 23.0 mph N/A   Overcast
9:34 AM 44.6 °F 37.2 °F 26.6 °F 49% 30.09 in 10.0 mi West 17.3 mph 23.0 mph N/A   Overcast
9:54 AM 44.6 °F 38.8 °F 26.6 °F 49% 30.09 in 10.0 mi West 11.5 mph 20.7 mph N/A   Overcast
10:14 AM 44.6 °F 38.4 °F 28.4 °F 53% 30.10 in 10.0 mi West 12.7 mph 21.9 mph N/A   Overcast
10:34 AM 46.4 °F 40.7 °F 28.4 °F 50% 30.11 in 10.0 mi West 12.7 mph 21.9 mph N/A   Overcast
10:54 AM 46.4 °F 39.5 °F 28.4 °F 50% 30.13 in 10.0 mi West 17.3 mph 25.3 mph N/A   Overcast
11:14 AM 46.4 °F 40.1 °F 28.4 °F 50% 30.13 in 10.0 mi WNW 15.0 mph 24.2 mph N/A   Overcast
11:34 AM 46.4 °F 39.8 °F 28.4 °F 50% 30.14 in 10.0 mi WNW 16.1 mph 26.5 mph N/A   Mostly Cloudy
11:54 AM 46.4 °F 39.0 °F 28.4 °F 50% 30.13 in 10.0 mi West 19.6 mph 24.2 mph N/A   Overcast
12:14 PM 48.2 °F - 28.4 °F 46% 30.14 in 10.0 mi WNW 18.4 mph 23.0 mph N/A   Overcast
12:34 PM 46.4 °F 39.8 °F 28.4 °F 50% 30.14 in 10.0 mi WNW 16.1 mph 26.5 mph N/A   Overcast
12:54 PM 46.4 °F 39.8 °F 28.4 °F 50% 30.14 in 10.0 mi WNW 16.1 mph 27.6 mph N/A   Overcast
1:15 PM 46.4 °F 39.0 °F 28.4 °F 50% 30.15 in 10.0 mi WNW 19.6 mph 26.5 mph N/A   Overcast
1:34 PM 46.4 °F 40.1 °F 28.4 °F 50% 30.15 in 10.0 mi West 15.0 mph 20.7 mph N/A   Overcast
1:54 PM 46.4 °F 41.5 °F 28.4 °F 50% 30.16 in 10.0 mi WNW 10.4 mph 18.4 mph N/A   Overcast
2:14 PM 48.2 °F - 28.4 °F 46% 30.16 in 10.0 mi West 11.5 mph 20.7 mph N/A   Overcast
2:34 PM 48.2 °F - 26.6 °F 43% 30.16 in 10.0 mi WNW 10.4 mph 21.9 mph N/A   Mostly Cloudy
2:54 PM 48.2 °F - 26.6 °F 43% 30.17 in 10.0 mi NW 18.4 mph 25.3 mph N/A   Mostly Cloudy
3:14 PM 48.2 °F - 28.4 °F 46% 30.18 in 10.0 mi WNW 13.8 mph 18.4 mph N/A   Overcast
3:34 PM 48.2 °F - 28.4 °F 46% 30.19 in 10.0 mi WNW 15.0 mph - N/A   Overcast
3:54 PM 48.2 °F - 28.4 °F 46% 30.19 in 10.0 mi WNW 10.4 mph - N/A   Overcast
4:14 PM 48.2 °F - 26.6 °F 43% 30.20 in 10.0 mi West 11.5 mph 17.3 mph N/A   Scattered Clouds
4:34 PM 46.4 °F 41.9 °F 28.4 °F 50% 30.21 in 10.0 mi West 9.2 mph - N/A   Scattered Clouds
4:54 PM 46.4 °F 41.5 °F 28.4 °F 50% 30.21 in 10.0 mi WNW 10.4 mph - N/A   Scattered Clouds
5:14 PM 46.4 °F 41.9 °F 26.6 °F 46% 30.22 in 10.0 mi West 9.2 mph - N/A   Scattered Clouds
5:34 PM 44.6 °F 41.4 °F 28.4 °F 53% 30.22 in 10.0 mi West 5.8 mph - N/A   Mostly Cloudy
5:54 PM 44.6 °F 41.4 °F 28.4 °F 53% 30.23 in 10.0 mi West 5.8 mph - N/A   Scattered Clouds
6:14 PM 44.6 °F 40.7 °F 28.4 °F 53% 30.23 in 10.0 mi West 6.9 mph - N/A   Clear
6:34 PM 42.8 °F 39.3 °F 28.4 °F 57% 30.24 in 10.0 mi West 5.8 mph - N/A   Clear
6:54 PM 42.8 °F 40.1 °F 28.4 °F 57% 30.25 in 10.0 mi West 4.6 mph - N/A   Clear
7:14 PM 42.8 °F 41.1 °F 28.4 °F 57% 30.24 in 10.0 mi WSW 3.5 mph - N/A   Clear
7:34 PM 41.0 °F 39.0 °F 28.4 °F 61% 30.24 in 10.0 mi WSW 3.5 mph - N/A   Clear
7:54 PM 41.0 °F 39.0 °F 28.4 °F 61% 30.25 in 10.0 mi WSW 3.5 mph - N/A   Clear
8:14 PM 39.2 °F 34.2 °F 28.4 °F 65% 30.25 in 10.0 mi WSW 6.9 mph - N/A   Clear
8:34 PM 39.2 °F 35.0 °F 28.4 °F 65% 30.25 in 10.0 mi West 5.8 mph - N/A   Clear
8:54 PM 39.2 °F 35.9 °F 28.4 °F 65% 30.25 in 10.0 mi West 4.6 mph - N/A   Clear
9:14 PM 39.2 °F 35.0 °F 28.4 °F 65% 30.26 in 10.0 mi West 5.8 mph - N/A   Clear
9:34 PM 39.2 °F 35.9 °F 28.4 °F 65% 30.26 in 10.0 mi WSW 4.6 mph - N/A   Clear
9:54 PM 39.2 °F 37.0 °F 28.4 °F 65% 30.26 in 10.0 mi WSW 3.5 mph - N/A   Clear
10:14 PM 37.4 °F 34.9 °F 28.4 °F 70% 30.25 in 10.0 mi WSW 3.5 mph - N/A   Clear
10:34 PM 37.4 °F 33.8 °F 28.4 °F 70% 30.25 in 10.0 mi SW 4.6 mph - N/A   Clear
10:54 PM 37.4 °F 33.8 °F 28.4 °F 70% 30.26 in 10.0 mi WSW 4.6 mph - N/A   Clear
11:14 PM 37.4 °F 34.9 °F 28.4 °F 70% 30.25 in 10.0 mi WSW 3.5 mph - N/A   Clear
11:34 PM 37.4 °F 34.9 °F 28.4 °F 70% 30.25 in 10.0 mi WSW 3.5 mph - N/A   Clear
11:54 PM 37.4 °F 34.9 °F 30.2 °F 75% 30.24 in 10.0 mi WSW 3.5 mph - N/A   Clear